CYHKCYYH

Guest
Details From CYHK - Gjoa Haven
To CYYH - TALOYOAK
Flight Number -
Tags generated
Created
Modified
Stats Distance 74 nm / 138 km
Max Altitude 200 ft / 61 m
Waypoints 3
Social Downloads 2
Likes 0
Share VATSIM

Download

Looking for another format? Having issues loading an existing format? Contact us
Advertisement - Login to hide

Notes

Basic altitude profile: - Ascent Rate: 500ft/min - Ascent Speed: 100kts - Cruise Altitude: 2500ft - Cruise Speed: 160kts - Descent Rate: 500ft/min - Descent Speed: 80kts Options: - Use NATs: no - Use PACOTS: no - Use low airways: yes - Use high airways: no

Route

CYHK YHK CYYH

ID Type Via Altitude Latitude Longitude Leg Dist Tot Dist Heading (true) Name
O CYHK APT - 0 ft / 0 m 68.63545˚ -95.85024˚ - 0 nm - Gjoa Haven
YHK NDB - 200 ft / 61 m 68.62611˚ -95.85833˚ 0 nm 0 nm 198° / 198° GJOA HAVEN NDB
O CYYH APT - 0 ft / 0 m 69.54611˚ -93.57611˚ 73 nm 74 nm 40° / 43° TALOYOAK

Altitude Profile

Advertisement - Login to hide

CYHK

Details ICAO CYHK (YHK)
Name Gjoa Haven
Region Canada
Timezone America/Cambridge_Bay (UTC-6.0)
Stats Elevation 154 ft / 47 m (AMSL)
Location 68.635447° -95.850245°
Runways 1
Magnetic Variation 7.242° W

METAR

CYHK 212100Z 33005KT 10SM -SN BKN017 OVC040 M05/M07 A3010 RMK SC5SC3 SLP199

Decode

TAF

TAF CYHK 211738Z 2118/2206 31010KT P6SM -SN OVC030 TEMPO 2118/2206 OVC020 RMK NXT FCST BY 220000Z

Decode

Departure Runways

ID Width Length Bearing (true) Bearing (mag) Surface Threshold Offset Overrun Length
13T 98 ft / 30 m 4,465 ft / 1,361 m 126.79° 134.03° Gravel 0 ft / 0 m 0 ft / 0 m
31T 98 ft / 30 m 4,465 ft / 1,361 m 306.81° 314.05° Gravel 0 ft / 0 m 0 ft / 0 m

CYYH

Details ICAO CYYH (YYH)
Name TALOYOAK
Region Canada
Timezone America/Cambridge_Bay (UTC-6.0)
Stats Elevation 92 ft / 28 m (AMSL)
Location 69.546111° -93.576113°
Runways 1
Magnetic Variation 12.421° W

METAR

CYYH 212126Z 30007KT 15SM -SN SCT014 OVC043 M04/M07 A3005 RMK SC3SC5 SLP182

Decode

TAF

TAF CYYH 211738Z 2118/2206 28007KT P6SM -SN BKN040 RMK NXT FCST BY 220000Z

Decode

Destination Runways

ID Width Length Bearing (true) Bearing (mag) Surface Threshold Offset Overrun Length
15T 100 ft / 30 m 4,008 ft / 1,222 m 151.85° 164.27° Gravel 0 ft / 0 m 0 ft / 0 m
33T 100 ft / 30 m 4,008 ft / 1,222 m 331.87° 344.29° Gravel 0 ft / 0 m 0 ft / 0 m